Clearfield, PA

3:31 PM EDT on March 29, 2017 (GMT -0400)
Clearfield-Lawrence

Weather History for KFIG - February, 2013

Change the Weather History Date:

Wednesday, February 6, 2013

  Actual Average (KDUJ) Record (KDUJ)
Temperature  
Mean Temperature 30 °F -  
Max Temperature 42 °F 29 °F 57 °F (2008)
Min Temperature 17 °F 14 °F -9 °F (2007)
Degree Days  
Heating Degree Days 34    
Moisture  
Dew Point 16 °F    
Average Humidity 56    
Maximum Humidity 85    
Minimum Humidity 28    
Precipitation  
Precipitation 0.00 in - - ()
Sea Level Pressure  
Sea Level Pressure 30.13 in    
Wind  
Wind Speed 7 mph (West)    
Max Wind Speed 13 mph    
Max Gust Speed 20 mph    
Visibility 8 miles    
Events Snow    
Averages and records for this station are not official NWS values.
T = Trace of Precipitation, MM = Missing Value Source: NWS Daily Summary

Daily Weather History Graph

Daily Weather History Graph

Search for Another Location

Airport or City:

Trip Planner

Search our weather history database for the weather conditions in past years. The results will help you decide how hot, cold, wet, or windy it might be!

Date:

Astronomy

Feb. 06, 2013 Rise Set
Actual Time 7:18 AM EST 5:37 PM EST
Civil Twilight 6:50 AM EST 6:05 PM EST
Nautical Twilight 6:17 AM EST 6:38 PM EST
Astronomical Twilight 5:45 AM EST 7:10 PM EST
Moon 4:01 AM EST (2/6) 1:52 PM EST (2/6)
Length of Visible Light 11h 15m
Length of Day
10h 18m
Waning Crescent, 17% of the Moon is Illuminated
Feb 6
Waning Crescent
Feb 10
New
Feb 17
First Quarter
Feb 25
Full
Mar 4
Last Quarter

Hourly Weather History & Observations

Time (EST) Temp. Windchill Dew Point Humidity Pressure Visibility Wind Dir Wind Speed Gust Speed Precip Events Conditions
12:54 AM 32.0 °F 28.7 °F 19.9 °F 61% 29.93 in 7.0 mi SW 3.5 mph - 0.00 in   Overcast
2:54 AM 34.0 °F 27.2 °F 19.9 °F 56% 29.95 in 10.0 mi West 8.1 mph - N/A   Overcast
3:11 AM 33.8 °F 27.7 °F 19.4 °F 56% 29.91 in 10.0 mi West 6.9 mph - N/A   Overcast
3:54 AM 33.1 °F 28.7 °F 19.9 °F 59% 29.98 in 10.0 mi West 4.6 mph 19.6 mph N/A   Overcast
4:06 AM 33.8 °F 27.7 °F 19.4 °F 56% 29.94 in 10.0 mi West 6.9 mph - N/A   Overcast
4:54 AM 34.0 °F 26.6 °F 19.0 °F 54% 29.99 in 10.0 mi WSW 9.2 mph - N/A   Overcast
5:44 AM 35.6 °F 28.6 °F 19.4 °F 52% 29.99 in 10.0 mi WSW 9.2 mph - N/A   Overcast
5:54 AM 34.0 °F 26.0 °F 21.0 °F 59% 30.04 in 8.0 mi West 10.4 mph 17.3 mph N/A   Overcast
7:39 AM - - - N/A% 30.04 in 8.0 mi WSW 10.4 mph - N/A   Overcast
7:54 AM - - - N/A% 30.05 in 4.0 mi WSW 8.1 mph 19.6 mph 0.00 in   Unknown
8:35 AM - - - N/A% 30.06 in 2.0 mi WSW 5.8 mph - 0.00 in   Unknown
8:49 AM - - - N/A% 30.06 in 1.2 mi West 4.6 mph - 0.00 in   Unknown
8:54 AM - - - N/A% 30.06 in 1.0 mi West 6.9 mph - 0.00 in   Unknown
9:50 AM - - - N/A% 30.09 in 1.0 mi West 9.2 mph - 0.00 in   Unknown
9:54 AM 27.0 °F 17.3 °F 23.0 °F 85% 30.14 in 1.0 mi West 10.4 mph - 0.00 in Snow Light Snow
10:34 AM 26.6 °F 16.2 °F 21.2 °F 80% 30.11 in 4.0 mi NW 11.5 mph - 0.00 in Snow Light Snow
10:54 AM 26.1 °F 15.0 °F 19.0 °F 75% 30.18 in 8.0 mi NW 12.7 mph 19.6 mph 0.00 in Snow Light Snow
11:54 AM 28.9 °F 18.6 °F 16.0 °F 58% 30.19 in 10.0 mi WNW 12.7 mph - 0.00 in   Mostly Cloudy
12:54 PM 27.0 °F 18.0 °F 14.0 °F 58% 30.19 in 10.0 mi WNW 9.2 mph - 0.00 in   Scattered Clouds
1:54 PM 28.9 °F 19.2 °F 14.0 °F 54% 30.21 in 10.0 mi WSW 11.5 mph - 0.00 in   Overcast
2:54 PM 37.0 °F 31.6 °F 12.0 °F 36% 30.21 in 10.0 mi WNW 6.9 mph 16.1 mph 0.00 in   Clear
3:54 PM 39.9 °F 36.7 °F 10.9 °F 31% 30.24 in 10.0 mi WNW 4.6 mph - N/A   Clear
4:54 PM 42.1 °F 37.1 °F 10.9 °F 28% 30.24 in 10.0 mi WSW 8.1 mph - N/A   Clear
5:54 PM 35.1 °F 32.2 °F 10.0 °F 35% 30.27 in 10.0 mi West 3.5 mph - N/A   Clear
6:54 PM 35.1 °F 31.0 °F 10.0 °F 35% 30.26 in 10.0 mi WSW 4.6 mph - N/A   Clear
7:54 PM 28.9 °F - 10.9 °F 47% 30.25 in 10.0 mi Calm Calm - N/A   Clear
8:54 PM 23.0 °F - 10.9 °F 60% 30.28 in 10.0 mi Calm Calm - N/A   Clear
9:54 PM 21.0 °F 16.2 °F 10.0 °F 63% 30.37 in 10.0 mi South 3.5 mph - N/A   Clear
10:54 PM 19.0 °F 12.3 °F 12.0 °F 74% 30.36 in 10.0 mi North 4.6 mph - N/A   Clear
11:54 PM 17.1 °F - 10.0 °F 74% 30.34 in 10.0 mi Calm Calm - N/A   Clear